Regional Weather Roundup
Issued by NWS Binghamton, NY

Home | Current Version | Previous Version | Text Only | Print | Product List | Glossary On
Versions: 1 2 3 4 5 6 7 8 9 10 11 12 13 14 15 16 17 18 19 20 21 22 23 24 25 26 27 28 29 30 31 32 33 34 35 36 37 38 39 40 41 42 43 44 45 46 47 48 49 50
000
ASUS41 KBGM 260010
RWRBGM

REGIONAL WEATHER ROUNDUP
NATIONAL WEATHER SERVICE BINGHAMTON NY
800 PM EDT SUN SEP 25 2016

Note: "fair" indicates few or no clouds below 12,000 feet with no
significant weather and/or obstructions to visibility.

* = Station(s) that does not report precipitation, such as rain,
snow, etc, also no thunder or fog.

NYZ009-015>018-022>025-036-037-044>046-055>057-062-260100
...Central New York...

CITY           SKY/WX    TMP DP  RH WIND       PRES   REMARKS
Binghamton     CLEAR     52  33  48 NE8       30.18R
Cortland       FAIR      46  41  81 CALM      30.20R
Dansville      CLOUDY    57  38  48 S6        30.18R
Elmira         PTCLDY    54  36  50 E8        30.17R
Ithaca         CLEAR     47  41  80 NE6       30.20R
Hamilton       CLEAR     46  43  87 CALM      30.20S
Hornell        CLEAR     52  41  66 S3        30.21R
Monticello     CLEAR     52  34  50 N6        30.19R
Norwich        CLEAR     46  39  76 CALM      30.20R
Oneonta        CLEAR     52  36  54 CALM      30.19S
Penn Yan       CLOUDY    51  36  56 CALM      30.19S
Rome           CLEAR     50  43  77 CALM      30.21R
Sidney         CLEAR     50  48  93 CALM      30.19R
Syracuse       PTCLDY    51  42  71 N6        30.19R
$$

PAZ038>040-043-044-047-048-072-260100
...Northeast Pennsylvania...

CITY           SKY/WX    TMP DP  RH WIND       PRES   REMARKS
Hazleton       CLEAR     48  41  76 CALM      30.21S
Scranton       CLEAR     54  41  61 E6        30.17S
$$
&&
KEY
WCI = Wind Chill Index
VSB = Visibility
HX  = Heat Index
$$



USA.gov is the U.S. government's official web portal to all federal, state and local government web resources and services.